Willmar, MN

11:19 PM CST on February 06, 2016 (GMT -0600)
Willmar

Weather History for KBDH - May, 2013

Change the Weather History Date:

Saturday, May 11, 2013

  Actual Average (KLJF) Record (KLJF)
Temperature  
Mean Temperature 46 °F -  
Max Temperature 55 °F 70 °F 87 °F (1958)
Min Temperature 37 °F 45 °F 30 °F (1981)
Degree Days  
Heating Degree Days 19    
Moisture  
Dew Point 22 °F    
Average Humidity 42    
Maximum Humidity 81    
Minimum Humidity 17    
Precipitation  
Precipitation 0.00 in - - ()
Sea Level Pressure  
Sea Level Pressure 30.17 in    
Wind  
Wind Speed 18 mph (NNW)    
Max Wind Speed 34 mph    
Max Gust Speed 44 mph    
Visibility 10 miles    
Events      
Averages and records for this station are not official NWS values.
T = Trace of Precipitation, MM = Missing Value Source: NWS Daily Summary

Daily Weather History Graph

Daily Weather History Graph

Search for Another Location

Airport or City:

Trip Planner

Search our weather history database for the weather conditions in past years. The results will help you decide how hot, cold, wet, or windy it might be!

Date:

Astronomy

May. 11, 2013 Rise Set
Actual Time 5:55 AM CDT 8:38 PM CDT
Civil Twilight 5:21 AM CDT 9:12 PM CDT
Nautical Twilight 4:39 AM CDT 9:55 PM CDT
Astronomical Twilight 3:49 AM CDT 10:45 PM CDT
Moon 7:02 AM CDT (5/11) 10:21 PM CDT (5/11)
Length of Visible Light 15h 51m
Length of Day
14h 43m
Waxing Crescent, 3% of the Moon is Illuminated
May 11
Waxing Crescent
May 17
First Quarter
May 24
Full
May 31
Last Quarter
Jun 8
New

Hourly Weather History & Observations

Time (CDT) Temp. Windchill Dew Point Humidity Pressure Visibility Wind Dir Wind Speed Gust Speed Precip Events Conditions
12:15 AM 51.8 °F - 35.6 °F 54% 30.02 in 10.0 mi NNW 20.7 mph 28.8 mph N/A   Clear
12:35 AM 51.8 °F - 35.6 °F 54% 30.03 in 10.0 mi NNW 19.6 mph 27.6 mph N/A   Clear
12:55 AM 51.8 °F - 35.6 °F 54% 30.04 in 10.0 mi NNW 18.4 mph - N/A   Clear
1:15 AM 50.0 °F - 35.6 °F 58% 30.05 in 10.0 mi NNW 15.0 mph 19.6 mph N/A   Clear
1:35 AM 48.2 °F - 33.8 °F 58% 30.05 in 10.0 mi NNW 15.0 mph - N/A   Clear
1:55 AM 48.2 °F - 33.8 °F 58% 30.06 in 10.0 mi NNW 12.7 mph - N/A   Clear
2:15 AM 46.4 °F 41.1 °F 33.8 °F 62% 30.07 in 10.0 mi NW 11.5 mph - N/A   Clear
2:35 AM 46.4 °F 40.4 °F 33.8 °F 62% 30.09 in 10.0 mi NW 13.8 mph 17.3 mph N/A   Clear
2:55 AM 46.4 °F 41.5 °F 33.8 °F 62% 30.09 in 10.0 mi NW 10.4 mph - N/A   Clear
3:15 AM 44.6 °F 38.8 °F 33.8 °F 66% 30.09 in 10.0 mi NW 11.5 mph - N/A   Clear
3:35 AM 44.6 °F 38.1 °F 30.2 °F 57% 30.10 in 10.0 mi NW 13.8 mph - N/A   Clear
3:55 AM 44.6 °F 38.4 °F 30.2 °F 57% 30.11 in 10.0 mi NNW 12.7 mph - N/A   Clear
4:15 AM 42.8 °F 37.5 °F 30.2 °F 61% 30.11 in 10.0 mi NW 9.2 mph - N/A   Clear
4:35 AM 41.0 °F 35.2 °F 33.8 °F 76% 30.12 in 10.0 mi NW 9.2 mph - N/A   Clear
4:55 AM 39.2 °F 32.5 °F 33.8 °F 81% 30.12 in 10.0 mi NW 10.4 mph - N/A   Clear
5:15 AM 39.2 °F 33.0 °F 33.8 °F 81% 30.13 in 10.0 mi NW 9.2 mph - N/A   Clear
5:35 AM 39.2 °F 33.0 °F 33.8 °F 81% 30.13 in 10.0 mi NW 9.2 mph - N/A   Clear
5:55 AM 39.2 °F 33.0 °F 33.8 °F 81% 30.14 in 10.0 mi WNW 9.2 mph - N/A   Clear
6:15 AM 39.2 °F 33.0 °F 32.0 °F 75% 30.15 in 10.0 mi WNW 9.2 mph - N/A   Clear
6:35 AM 39.2 °F 32.0 °F 32.0 °F 75% 30.15 in 10.0 mi NW 11.5 mph - N/A   Clear
6:56 AM 39.2 °F 31.2 °F 32.0 °F 75% 30.16 in 10.0 mi NW 13.8 mph - N/A   Clear
7:15 AM 41.0 °F 33.1 °F 30.2 °F 65% 30.17 in 10.0 mi NW 15.0 mph 23.0 mph N/A   Clear
7:35 AM 42.8 °F 34.5 °F 30.2 °F 61% 30.17 in 10.0 mi NW 18.4 mph 24.2 mph N/A   Clear
7:56 AM 42.8 °F 33.5 °F 32.0 °F 66% 30.17 in 10.0 mi NW 23.0 mph 29.9 mph N/A   Clear
8:15 AM 44.6 °F 35.3 °F 30.2 °F 57% 30.18 in 10.0 mi NNW 26.5 mph 33.4 mph N/A   Scattered Clouds
8:35 AM 44.6 °F 36.1 °F 30.2 °F 57% 30.18 in 10.0 mi NW 21.9 mph 29.9 mph N/A   Scattered Clouds
8:55 AM 44.6 °F 35.5 °F 28.4 °F 53% 30.19 in 10.0 mi NNW 25.3 mph 31.1 mph N/A   Scattered Clouds
9:15 AM 44.6 °F 35.5 °F 26.6 °F 49% 30.19 in 10.0 mi NNW 25.3 mph 38.0 mph N/A   Scattered Clouds
9:35 AM 46.4 °F 37.5 °F 23.0 °F 40% 30.19 in 10.0 mi North 27.6 mph 43.7 mph N/A   Scattered Clouds
9:56 AM 46.4 °F 37.7 °F 24.8 °F 43% 30.20 in 10.0 mi NNW 26.5 mph 36.8 mph N/A   Scattered Clouds
10:15 AM 48.2 °F - 21.2 °F 34% 30.20 in 10.0 mi NNW 34.5 mph 40.3 mph N/A   Scattered Clouds
10:35 AM 48.2 °F - 21.2 °F 34% 30.21 in 10.0 mi NNW 25.3 mph 34.5 mph N/A   Clear
10:55 AM 48.2 °F - 17.6 °F 30% 30.21 in 10.0 mi North 28.8 mph 36.8 mph N/A   Clear
11:15 AM 48.2 °F - 17.6 °F 30% 30.21 in 10.0 mi NNW 31.1 mph 40.3 mph N/A   Clear
11:35 AM 50.0 °F - 15.8 °F 26% 30.21 in 10.0 mi NNW 28.8 mph 42.6 mph N/A   Clear
11:55 AM 50.0 °F - 15.8 °F 26% 30.21 in 10.0 mi NNW 24.2 mph 35.7 mph N/A   Clear
12:15 PM 51.8 °F - 15.8 °F 24% 30.21 in 10.0 mi NNW 27.6 mph 35.7 mph N/A   Clear
12:35 PM 50.0 °F - 14.0 °F 24% 30.21 in 10.0 mi NNW 26.5 mph 36.8 mph N/A   Clear
12:55 PM 51.8 °F - 15.8 °F 24% 30.21 in 10.0 mi North 27.6 mph 34.5 mph N/A   Clear
1:15 PM 51.8 °F - 15.8 °F 24% 30.21 in 10.0 mi NNW 21.9 mph 33.4 mph N/A   Clear
1:35 PM 51.8 °F - 15.8 °F 24% 30.21 in 10.0 mi NNW 29.9 mph 40.3 mph N/A   Clear
1:55 PM 53.6 °F - 15.8 °F 22% 30.21 in 10.0 mi NW 27.6 mph 34.5 mph N/A   Clear
2:15 PM 53.6 °F - 15.8 °F 22% 30.21 in 10.0 mi NNW 27.6 mph 42.6 mph N/A   Clear
2:36 PM 53.6 °F - 15.8 °F 22% 30.21 in 10.0 mi NW 26.5 mph 34.5 mph N/A   Clear
2:55 PM 53.6 °F - 15.8 °F 22% 30.21 in 10.0 mi North 26.5 mph 38.0 mph N/A   Clear
3:15 PM 53.6 °F - 15.8 °F 22% 30.20 in 10.0 mi NW 26.5 mph 33.4 mph N/A   Clear
3:36 PM 53.6 °F - 14.0 °F 21% 30.20 in 10.0 mi NNW 23.0 mph 36.8 mph N/A   Clear
3:55 PM 55.4 °F - 14.0 °F 20% 30.20 in 10.0 mi NNW 25.3 mph 35.7 mph N/A   Clear
4:15 PM 53.6 °F - 12.2 °F 19% 30.20 in 10.0 mi North 24.2 mph 38.0 mph N/A   Clear
4:35 PM 55.4 °F - 12.2 °F 18% 30.19 in 10.0 mi NNW 26.5 mph 31.1 mph N/A   Clear
4:55 PM 55.4 °F - 10.4 °F 17% 30.19 in 10.0 mi NNW 25.3 mph 31.1 mph N/A   Clear
5:15 PM 53.6 °F - 10.4 °F 18% 30.19 in 10.0 mi NNW 24.2 mph 32.2 mph N/A   Clear
5:35 PM 53.6 °F - 12.2 °F 19% 30.20 in 10.0 mi NNW 26.5 mph 34.5 mph N/A   Clear
5:55 PM 53.6 °F - 12.2 °F 19% 30.20 in 10.0 mi NNW 23.0 mph 32.2 mph N/A   Clear
6:15 PM 53.6 °F - 14.0 °F 21% 30.20 in 10.0 mi North 19.6 mph 29.9 mph N/A   Clear
6:35 PM 53.6 °F - 12.2 °F 19% 30.20 in 10.0 mi NNW 21.9 mph 29.9 mph N/A   Clear
6:55 PM 53.6 °F - 12.2 °F 19% 30.20 in 10.0 mi NNW 20.7 mph 28.8 mph N/A   Clear
7:15 PM 51.8 °F - 12.2 °F 21% 30.20 in 10.0 mi NNW 24.2 mph 31.1 mph N/A   Clear
7:35 PM 51.8 °F - 12.2 °F 21% 30.19 in 10.0 mi North 19.6 mph 26.5 mph N/A   Clear
7:55 PM 51.8 °F - 12.2 °F 21% 30.20 in 10.0 mi NNW 18.4 mph 25.3 mph N/A   Clear
8:15 PM 50.0 °F - 12.2 °F 22% 30.20 in 10.0 mi NNW 20.7 mph 27.6 mph N/A   Clear
8:35 PM 48.2 °F - 12.2 °F 24% 30.20 in 10.0 mi North 12.7 mph - N/A   Clear
9:15 PM 46.4 °F 41.1 °F 15.8 °F 29% 30.21 in 10.0 mi NNW 11.5 mph - N/A   Clear
9:35 PM 44.6 °F 39.2 °F 17.6 °F 34% 30.21 in 10.0 mi NNW 10.4 mph 16.1 mph N/A   Clear
9:55 PM 44.6 °F 39.7 °F 17.6 °F 34% 30.22 in 10.0 mi NNW 9.2 mph - N/A   Clear
10:15 PM 42.8 °F 38.0 °F 19.4 °F 39% 30.22 in 10.0 mi NNW 8.1 mph - N/A   Clear
10:35 PM 42.8 °F 38.0 °F 19.4 °F 39% 30.22 in 10.0 mi NW 8.1 mph - N/A   Clear
10:55 PM 41.0 °F 37.1 °F 19.4 °F 42% 30.22 in 10.0 mi NW 5.8 mph - N/A   Clear
11:15 PM 39.2 °F 35.0 °F 19.4 °F 45% 30.23 in 10.0 mi NW 5.8 mph - N/A   Clear
11:35 PM 37.4 °F 32.8 °F 21.2 °F 52% 30.23 in 10.0 mi WNW 5.8 mph - N/A   Clear
11:55 PM 37.4 °F 30.8 °F 19.4 °F 48% 30.23 in 10.0 mi NW 9.2 mph - N/A   Clear